Location: Smoky Mountain Stargaze
(35.4252°N, 83.3329°W)
Time: 23:35:21
(UTC-04:00)

Amateur Radio Satellites - All Passes

Search period start: 28 April 2017 23:05
Search period end: 29 April 2017 23:05
Location: Smoky Mountain Stargaze, 35.4252°N, 83.3329°W

Satellite Date Start Highest point End Downlink Frequencies (MHz)
Time Altitude Azimuth
LO-87 28 Apr 23:10:16 23:13:04 21° 71° (ENE) 23:15:52 145.935 - 145.965
UNISAT 6 28 Apr 23:13:36 23:17:43 42° 99° (E) 23:21:52 437.425
PRISM 28 Apr 23:33:18 23:37:25 63° 284° (WNW) 23:41:28 437.425
BEESAT 3 28 Apr 23:36:17 23:40:14 59° 244° (WSW) 23:44:08 437.485
BEESAT 2 28 Apr 23:40:31 23:44:29 51° 58° (ENE) 23:48:24 435.950
DELFI C3 28 Apr 23:43:43 23:45:15 12° 268° (W) 23:46:48 145.870
OBJECT BX 28 Apr 23:49:39 23:50:49 11° 267° (W) 23:51:59 145.990 - 145.960
FO-29 28 Apr 23:56:09 00:01:27 85° 103° (ESE) 00:07:13 435.910
TIGRISAT 29 Apr 00:28:38 00:32:15 27° 289° (WNW) 00:35:52 435.000
ESTCUBE 1 29 Apr 00:30:45 00:35:13 68° 259° (WSW) 00:39:44 437.505/2401.250
POLYITAN 1 29 Apr 00:33:34 00:36:48 21° 96° (E) 00:40:02 437.675
VELOX 1 29 Apr 00:33:47 00:37:46 33° 71° (ENE) 00:41:46 145.980
QB50P2 29 Apr 00:40:00 00:43:38 28° 97° (E) 00:47:15 145.880/145.840
LO-87 29 Apr 00:43:49 00:46:25 18° 265° (W) 00:49:00 145.935 - 145.965
AIST 2D 29 Apr 00:50:02 00:53:35 78° 104° (ESE) 00:57:06 435.315
UNISAT 6 29 Apr 00:51:44 00:54:03 14° 293° (WNW) 00:56:22 437.425
NANOSAT C BR1 29 Apr 00:59:12 01:03:08 39° 99° (E) 01:07:03 145.865
50 SAT 29 Apr 01:01:05 01:04:13 32° 73° (ENE) 01:07:22 437.505
SPROUT 29 Apr 01:17:26 01:21:42 81° 258° (WSW) 01:25:59 437.525
DX 1 29 Apr 01:17:30 01:21:32 37° 72° (ENE) 01:25:35 434.975-435.025
BEESAT 2 29 Apr 01:20:35 01:21:45 11° 253° (WSW) 01:22:54 435.950
DUCHIFAT 1 29 Apr 01:27:26 01:31:37 80° 102° (ESE) 01:35:48 145.980
EO-79 29 Apr 01:28:25 01:32:37 79° 284° (WNW) 01:36:48 145.935-145.965
PCSat 29 Apr 01:43:11 01:47:43 28° 108° (ESE) 01:52:15 145.827
POLYITAN 1 29 Apr 02:09:02 02:12:31 26° 289° (WNW) 02:15:59 437.675
VELOX 1 29 Apr 02:11:05 02:14:14 19° 265° (W) 02:17:24 145.980
UKube-1 29 Apr 02:15:06 02:19:23 65° 258° (WSW) 02:23:42 .
QB50P2 29 Apr 02:16:08 02:19:13 20° 291° (WNW) 02:22:18 145.880/145.840
BUGSAT 1 29 Apr 02:19:15 02:23:16 82° 284° (WNW) 02:27:17 437.445
BEESAT 29 Apr 02:31:20 02:33:38 14° 64° (ENE) 02:35:57 436.000
NANOSAT C BR1 29 Apr 02:36:10 02:38:28 15° 293° (WNW) 02:40:47 145.865
50 SAT 29 Apr 02:36:14 02:37:13 11° 267° (W) 02:38:13 437.505
Oscar 19 29 Apr 02:53:36 02:58:47 65° 101° (E) 03:03:56 437.125/150
DX 1 29 Apr 02:55:06 02:57:49 16° 266° (W) 03:00:32 434.975-435.025
ITUPSAT 1 29 Apr 03:11:23 03:15:40 35° 71° (ENE) 03:19:59 437.325
NO-84 29 Apr 03:14:14 03:17:07 70° 48° (NE) 03:19:55 435.350 FM
Gurwin Techsat 1B 29 Apr 03:15:26 03:20:42 60° 101° (E) 03:25:55 435.225
PCSat 29 Apr 03:26:01 03:30:56 35° 303° (WNW) 03:35:53 145.827
MOZHAYETS 4 29 Apr 03:37:33 03:41:30 30° 71° (ENE) 03:45:28
AO-7 29 Apr 03:58:48 04:05:16 24° 96° (E) 04:11:41 .
BEESAT 29 Apr 04:06:15 04:10:53 56° 259° (W) 04:15:34 436.000
ITAMSAT 1 29 Apr 04:25:14 04:30:04 39° 99° (E) 04:34:52 435.822/435.867
YUBILEINY 29 Apr 04:25:17 04:33:17 43° 88° (E) 04:41:18 435.215
Oscar 19 29 Apr 04:34:55 04:37:30 14° 297° (WNW) 04:40:05 437.125/150
CUBESAT XI-V 29 Apr 04:35:57 04:39:29 22° 68° (ENE) 04:43:01 437.345
ITUPSAT 1 29 Apr 04:50:05 04:53:32 20° 265° (W) 04:57:01 437.325
Gurwin Techsat 1B 29 Apr 04:57:04 05:00:05 15° 296° (WNW) 05:03:05 435.225
KKS-1 29 Apr 05:07:00 05:11:19 50° 74° (ENE) 05:15:39 437.445
MOZHAYETS 4 29 Apr 05:15:11 05:18:38 21° 265° (W) 05:22:07
STARS 29 Apr 05:31:29 05:35:34 39° 72° (ENE) 05:39:40 437.465
RS-15 29 Apr 05:33:01 05:38:09 14° 96° (E) 05:43:20 29.354- 29.394
SO-50 29 Apr 05:43:16 05:47:03 25° 112° (ESE) 05:50:48 436.795
AO-7 29 Apr 05:50:15 05:58:26 64° 292° (WNW) 06:06:38 .
ITAMSAT 1 29 Apr 06:05:20 06:09:14 22° 293° (WNW) 06:13:08 435.822/435.867
CUBESAT XI-V 29 Apr 06:12:29 06:16:37 32° 263° (W) 06:20:48 437.345
YUBILEINY 29 Apr 06:22:19 06:30:04 36° 286° (WNW) 06:37:54 435.215
DOVE 4 29 Apr 06:22:21 06:24:41 14° 91° (E) 06:26:58 437.250
LilacSat-2 29 Apr 06:36:18 06:37:32 11° 92° (E) 06:38:46 437.200
KKS-1 29 Apr 06:46:15 06:48:06 12° 267° (W) 06:49:57 437.445
XW-2F 29 Apr 06:56:13 06:58:59 19° 95° (E) 07:01:44 145.980 - 146.000
NUDT-PHONESAT 29 Apr 06:59:37 07:02:02 16° 95° (E) 07:04:26 437.300
Tancredo 1 29 Apr 07:01:54 07:04:27 24° 131° (SE) 07:07:01 437.200
STARS 29 Apr 07:09:21 07:12:01 16° 266° (W) 07:14:40 437.465
M-CUBED/EXP-1 PRIME 29 Apr 07:15:35 07:19:15 24° 64° (ENE) 07:22:58 437.505
SO-50 29 Apr 07:23:17 07:27:22 30° 306° (NW) 07:31:25 436.795
CUTE-I 29 Apr 07:31:36 07:36:44 48° 100° (E) 07:41:51 437.470
RS-15 29 Apr 07:36:29 07:48:20 73° 114° (ESE) 08:00:37 29.354- 29.394
ISS 29 Apr 07:43:41 07:46:54 57° 135° (SE) 07:50:07 437.550
AO-7 29 Apr 07:46:44 07:49:35 12° 310° (NW) 07:52:26 .
XW-2D 29 Apr 07:46:53 07:50:42 80° 283° (WNW) 07:54:32 145.860 - 145.880
STRAND 1 29 Apr 07:52:54 07:57:51 54° 73° (ENE) 08:02:49 437.568
XW-2B 29 Apr 07:53:55 07:57:43 67° 283° (WNW) 08:01:31 145.730 - 145.750
HO-68 29 Apr 07:54:18 07:59:34 21° 94° (E) 08:04:48 435.675
KAITUO 1B 29 Apr 07:56:48 08:00:35 79° 281° (WNW) 08:04:22 145.475/437.950
DOVE 4 29 Apr 07:58:25 08:02:38 40° 287° (WNW) 08:06:37 437.250
XW-2A 29 Apr 08:00:18 08:01:25 11° 93° (E) 08:02:32 145.665 - 145.685
XW-2C 29 Apr 08:06:06 08:09:44 44° 286° (WNW) 08:13:24 145.795 - 145.815
LilacSat-2 29 Apr 08:08:21 08:11:57 39° 286° (WNW) 08:15:34 437.200
CUTE 1.7 + AOD 2 29 Apr 08:14:41 08:18:04 22° 95° (E) 08:21:25 437.475
SEEDS 29 Apr 08:29:25 08:32:39 21° 95° (E) 08:35:51 437.485
XW-2F 29 Apr 08:29:58 08:33:02 23° 289° (WNW) 08:36:05 145.980 - 146.000
NUDT-PHONESAT 29 Apr 08:32:47 08:35:54 26° 288° (WNW) 08:39:02 437.300
Tancredo 1 29 Apr 08:37:39 08:40:17 25° 326° (NW) 08:42:55 437.200
M-CUBED/EXP-1 PRIME 29 Apr 08:49:18 08:53:26 32° 259° (WSW) 08:57:38 437.505
CUTE-I 29 Apr 09:12:46 09:16:22 19° 295° (WNW) 09:19:58 437.470
ISS 29 Apr 09:21:31 09:23:38 16° 331° (NNW) 09:25:45 437.550
AAUSAT CUBESAT 2 29 Apr 09:28:06 09:32:10 48° 99° (E) 09:36:11 437.432
UWE-3 29 Apr 09:29:37 09:33:40 43° 99° (E) 09:37:47 435.000/436.395/437.385
XW-2A 29 Apr 09:31:17 09:34:13 28° 287° (WNW) 09:37:09 145.665 - 145.685
STRAND 1 29 Apr 09:34:31 09:37:18 15° 267° (W) 09:40:06 437.568
HO-68 29 Apr 09:40:34 09:47:39 62° 289° (WNW) 09:54:42 435.675
CUBEBUG 2 29 Apr 09:48:49 09:52:58 61° 284° (WNW) 09:57:10 437.445
TIGRISAT 29 Apr 09:49:15 09:51:28 14° 67° (ENE) 09:53:40 435.000
CUTE 1.7 + AOD 2 29 Apr 09:50:15 09:53:48 26° 289° (WNW) 09:57:21 437.475
RS-15 29 Apr 09:51:10 10:01:55 35° 317° (NW) 10:12:57 29.354- 29.394
O/OREOS (USA 219) 29 Apr 10:04:28 10:08:40 37° 104° (ESE) 10:12:55 437.305
SEEDS 29 Apr 10:04:40 10:08:17 27° 289° (WNW) 10:11:51 437.485
FO-29 29 Apr 10:06:11 10:11:08 26° 69° (ENE) 10:15:41 435.910
UNISAT 6 29 Apr 10:09:47 10:13:25 26° 71° (ENE) 10:16:59 437.425
ZACube-1 29 Apr 10:18:22 10:22:38 86° 284° (WNW) 10:26:59 437.345
PRISM 29 Apr 10:19:02 10:23:05 57° 75° (ENE) 10:27:11 437.425
AO-73 29 Apr 10:23:29 10:27:45 83° 285° (WNW) 10:32:06 145.935
PCSat 29 Apr 10:34:52 10:37:37 14° 47° (NE) 10:40:21 145.827
Oscar 11 29 Apr 10:35:35 10:39:56 74° 283° (WNW) 10:44:16 .
AAUSAT CUBESAT 2 29 Apr 11:05:29 11:07:09 12° 294° (WNW) 11:08:48 437.432
UWE-3 29 Apr 11:07:39 11:09:45 14° 293° (WNW) 11:11:51 435.000/436.395/437.385
OBJECT BX 29 Apr 11:18:33 11:22:14 74° 103° (ESE) 11:25:52 145.990 - 145.960
DELFI C3 29 Apr 11:20:54 11:24:54 76° 283° (WNW) 11:28:52 145.870
AIST 2D 29 Apr 11:22:28 11:24:42 16° 70° (ENE) 11:26:57 435.315
TIGRISAT 29 Apr 11:23:35 11:27:46 44° 261° (W) 11:31:54 435.000
AO-85 29 Apr 11:25:01 11:26:51 12° 110° (ESE) 11:28:39 145.980
POLYITAN 1 29 Apr 11:25:02 11:26:25 11° 66° (ENE) 11:27:48 437.675
QB50P2 29 Apr 11:30:42 11:33:06 15° 67° (ENE) 11:35:30 145.880/145.840
O/OREOS (USA 219) 29 Apr 11:44:56 11:48:11 19° 300° (WNW) 11:51:27 437.305
UNISAT 6 29 Apr 11:46:36 11:50:02 22° 264° (W) 11:53:27 437.425
NANOSAT C BR1 29 Apr 11:48:50 11:51:55 20° 69° (ENE) 11:54:59 145.865
FO-29 29 Apr 11:50:07 11:56:03 40° 261° (W) 12:01:23 435.910
LO-87 29 Apr 12:12:44 12:16:05 38° 99° (E) 12:19:24 145.935 - 145.965
RS-15 29 Apr 12:13:40 12:20:00 15° 351° (N) 12:26:19 29.354- 29.394
DUCHIFAT 1 29 Apr 12:16:04 12:19:56 37° 73° (ENE) 12:23:47 145.980
PCSat 29 Apr 12:16:14 12:21:41 84° 245° (WSW) 12:27:05 145.827
EO-79 29 Apr 12:17:27 12:21:31 48° 74° (ENE) 12:25:35 145.935-145.965
ESTCUBE 1 29 Apr 12:26:28 12:30:31 31° 97° (E) 12:34:32 437.505/2401.250
AIST 2D 29 Apr 12:55:00 12:57:43 22° 264° (W) 13:00:29 435.315
POLYITAN 1 29 Apr 12:57:36 13:01:42 51° 260° (W) 13:05:49 437.675
AO-85 29 Apr 13:02:39 13:06:52 49° 302° (WNW) 13:10:51 145.980
QB50P2 29 Apr 13:04:35 13:08:32 39° 261° (W) 13:12:29 145.880/145.840
BUGSAT 1 29 Apr 13:05:36 13:09:31 43° 74° (ENE) 13:13:25 437.445
SPROUT 29 Apr 13:06:51 13:10:03 21° 95° (E) 13:13:15 437.525
BEESAT 3 29 Apr 13:22:54 13:26:38 44° 115° (ESE) 13:30:26 437.485
NANOSAT C BR1 29 Apr 13:23:48 13:27:25 28° 263° (W) 13:31:03 145.865
BEESAT 2 29 Apr 13:29:54 13:32:37 18° 110° (ESE) 13:35:21 435.950
Tancredo 1 29 Apr 13:30:39 13:31:42 11° 25° (NNE) 13:32:46 437.200
LO-87 29 Apr 13:48:43 13:49:07 10° 293° (WNW) 13:49:30 145.935 - 145.965
DUCHIFAT 1 29 Apr 13:53:22 13:55:42 15° 267° (W) 13:58:02 145.980
EO-79 29 Apr 13:56:13 13:57:30 11° 268° (W) 13:58:47 145.935-145.965
50 SAT 29 Apr 13:59:50 14:03:15 53° 100° (E) 14:06:37 437.505
VELOX 1 29 Apr 14:02:30 14:06:56 80° 283° (WNW) 14:11:19 145.980
ESTCUBE 1 29 Apr 14:03:41 14:07:04 21° 292° (WNW) 14:10:28 437.505/2401.250
UKube-1 29 Apr 14:05:33 14:09:07 25° 97° (E) 14:12:39 .
Oscar 19 29 Apr 14:07:15 14:12:21 69° 75° (ENE) 14:17:31 437.125/150
ISS 29 Apr 14:14:28 14:16:58 20° 32° (NNE) 14:19:28 437.550
SO-50 29 Apr 14:18:33 14:20:12 12° 45° (NE) 14:21:49 436.795
RS-15 29 Apr 14:30:51 14:39:38 22° 28° (NNE) 14:48:11 29.354- 29.394
Gurwin Techsat 1B 29 Apr 14:33:21 14:38:38 71° 75° (ENE) 14:43:56 435.225
YUBILEINY 29 Apr 14:40:24 14:45:52 18° 67° (ENE) 14:51:18 435.215
SPROUT 29 Apr 14:42:20 14:45:54 27° 289° (WNW) 14:49:28 437.525
BUGSAT 1 29 Apr 14:43:20 14:45:02 12° 267° (W) 14:46:43 437.445
DX 1 29 Apr 14:44:15 14:48:36 74° 284° (WNW) 14:52:54 434.975-435.025
AO-7 29 Apr 14:54:56 15:01:34 28° 59° (ENE) 15:08:11 .
BEESAT 3 29 Apr 15:02:12 15:04:27 15° 311° (NW) 15:06:43 437.485
Tancredo 1 29 Apr 15:04:55 15:08:01 85° 42° (NE) 15:11:06 437.200
BEESAT 2 29 Apr 15:06:35 15:10:07 31° 305° (NW) 15:13:42 435.950
ITUPSAT 1 29 Apr 15:17:07 15:18:31 11° 92° (E) 15:19:55 437.325
ITAMSAT 1 29 Apr 15:40:07 15:45:01 44° 72° (ENE) 15:49:56 435.822/435.867
UKube-1 29 Apr 15:41:34 15:45:01 24° 291° (WNW) 15:48:26 .
Oscar 19 29 Apr 15:50:26 15:52:07 11° 269° (W) 15:53:46 437.125/150
ISS 29 Apr 15:50:30 15:53:33 37° 227° (SW) 15:56:35 437.550
SO-50 29 Apr 15:56:41 16:01:12 80° 242° (WSW) 16:05:42 436.795
BEESAT 29 Apr 16:09:15 16:13:50 45° 100° (E) 16:18:24 436.000
Gurwin Techsat 1B 29 Apr 16:17:15 16:19:01 12° 269° (W) 16:20:48 435.225
YUBILEINY 29 Apr 16:34:52 16:43:41 85° 266° (W) 16:52:30 435.215
RS-15 29 Apr 16:43:02 16:55:13 65° 56° (NE) 17:06:44 29.354- 29.394
AO-7 29 Apr 16:45:34 16:53:43 62° 256° (WSW) 17:01:56 .
ITUPSAT 1 29 Apr 16:51:57 16:56:41 62° 286° (WNW) 17:01:24 437.325
KKS-1 29 Apr 17:03:03 17:04:42 12° 92° (E) 17:06:20 437.445
MOZHAYETS 4 29 Apr 17:11:43 17:16:19 74° 285° (WNW) 17:20:56
ITAMSAT 1 29 Apr 17:21:05 17:24:39 19° 266° (W) 17:28:13 435.822/435.867
DOVE 4 29 Apr 17:24:27 17:27:10 14° 65° (ENE) 17:29:52 437.250
JUGNU 29 Apr 17:32:58 17:36:27 16° 174° (S) 17:39:56 437.505
BEESAT 29 Apr 17:48:14 17:51:12 17° 294° (WNW) 17:54:10 436.000
CUBESAT XI-V 29 Apr 18:11:18 18:16:02 79° 103° (ESE) 18:20:44 437.345
HO-68 29 Apr 18:23:17 18:25:43 12° 55° (NE) 18:28:09 435.675
XW-2D 29 Apr 18:25:19 18:28:33 28° 72° (ENE) 18:31:47 145.860 - 145.880
NO-84 29 Apr 18:28:29 18:32:08 35° 128° (SE) 18:35:30 435.350 FM
XW-2B 29 Apr 18:32:11 18:35:33 33° 73° (ENE) 18:38:58 145.730 - 145.750
KAITUO 1B 29 Apr 18:34:03 18:37:12 27° 72° (ENE) 18:40:23 145.475/437.950
YUBILEINY 29 Apr 18:35:17 18:39:04 14° 283° (WNW) 18:42:52 435.215
KKS-1 29 Apr 18:37:13 18:41:30 51° 286° (WNW) 18:45:47 437.445
XW-2C 29 Apr 18:43:59 18:47:36 50° 75° (ENE) 18:51:14 145.795 - 145.815
LilacSat-2 29 Apr 18:46:42 18:50:23 58° 76° (ENE) 18:54:06 437.200
CUTE-I 29 Apr 18:50:16 18:55:30 59° 73° (ENE) 19:00:45 437.470
RS-15 29 Apr 18:56:40 19:06:46 33° 256° (WSW) 19:16:29 29.354- 29.394
DOVE 4 29 Apr 18:59:01 19:04:16 65° 259° (W) 19:09:27 437.250
STARS 29 Apr 18:59:34 19:03:55 69° 284° (WNW) 19:08:12 437.465
SRMSAT 29 Apr 19:02:40 19:05:15 13° 168° (SSE) 19:07:51 437.500
CUTE 1.7 + AOD 2 29 Apr 19:06:25 19:07:40 11° 66° (ENE) 19:08:54 437.475
XW-2F 29 Apr 19:06:52 19:10:34 80° 257° (WSW) 19:14:19 145.980 - 146.000
NUDT-PHONESAT 29 Apr 19:08:13 19:11:52 84° 77° (ENE) 19:15:33 437.300
JUGNU 29 Apr 19:21:09 19:24:42 16° 185° (S) 19:28:16 437.505
SEEDS 29 Apr 19:21:11 19:21:17 10° 65° (ENE) 19:21:23 437.485
XW-2A 29 Apr 19:59:04 20:02:17 46° 75° (ENE) 20:05:30 145.665 - 145.685
XW-2D 29 Apr 20:00:37 20:02:46 15° 266° (W) 20:04:55 145.860 - 145.880
HO-68 29 Apr 20:05:05 20:12:11 73° 72° (ENE) 20:19:20 435.675
NO-84 29 Apr 20:06:44 20:09:43 22° 321° (NW) 20:12:31 435.350 FM
STRAND 1 29 Apr 20:07:04 20:11:07 23° 96° (E) 20:15:09 437.568
XW-2B 29 Apr 20:08:14 20:09:51 12° 267° (W) 20:11:27 145.730 - 145.750
KAITUO 1B 29 Apr 20:09:07 20:11:13 15° 266° (W) 20:13:21 145.475/437.950
AAUSAT CUBESAT 2 29 Apr 20:15:40 20:18:48 21° 70° (ENE) 20:21:58 437.432
O/OREOS (USA 219) 29 Apr 20:17:19 20:21:41 43° 66° (ENE) 20:25:59 437.305
UWE-3 29 Apr 20:24:06 20:27:30 24° 71° (ENE) 20:30:51 435.000/436.395/437.385
M-CUBED/EXP-1 PRIME 29 Apr 20:31:51 20:34:54 21° 99° (E) 20:37:45 437.505
CUTE-I 29 Apr 20:33:01 20:35:52 14° 268° (W) 20:38:44 437.470
CUTE 1.7 + AOD 2 29 Apr 20:38:51 20:42:58 53° 260° (W) 20:47:07 437.475
CUBEBUG 2 29 Apr 20:43:27 20:47:47 73° 77° (ENE) 20:52:01 437.445
SRMSAT 29 Apr 20:49:50 20:53:40 17° 178° (S) 20:57:30 437.500
SEEDS 29 Apr 20:52:17 20:56:24 59° 259° (W) 21:00:34 437.485
ZACube-1 29 Apr 21:11:04 21:15:04 47° 75° (ENE) 21:19:03 437.345
JUGNU 29 Apr 21:11:51 21:12:56 10° 194° (SSW) 21:14:00 437.505
AO-73 29 Apr 21:15:52 21:19:52 48° 74° (ENE) 21:23:51 145.935
Oscar 11 29 Apr 21:26:57 21:31:08 55° 75° (ENE) 21:35:21 .
AO-85 29 Apr 21:36:13 21:40:08 50° 59° (ENE) 21:44:13 145.980
BEESAT 3 29 Apr 21:44:01 21:45:38 12° 47° (NE) 21:47:16 437.485
STRAND 1 29 Apr 21:45:43 21:50:18 34° 290° (WNW) 21:54:52 437.568
AAUSAT CUBESAT 2 29 Apr 21:50:38 21:54:05 25° 264° (W) 21:57:34 437.432
OBJECT BX 29 Apr 21:54:07 21:56:43 19° 70° (ENE) 21:59:20 145.990 - 145.960
HO-68 29 Apr 21:56:02 22:00:27 17° 268° (W) 22:04:55 435.675
O/OREOS (USA 219) 29 Apr 21:58:08 22:00:39 15° 261° (W) 22:03:07 437.305
UWE-3 29 Apr 22:00:28 22:03:51 23° 264° (W) 22:07:12 435.000/436.395/437.385
DELFI C3 29 Apr 22:03:05 22:06:45 36° 73° (ENE) 22:10:27 145.870
M-CUBED/EXP-1 PRIME 29 Apr 22:06:04 22:09:15 23° 296° (WNW) 22:12:15 437.505
SRMSAT 29 Apr 22:38:47 22:42:06 15° 189° (S) 22:45:25 437.500
LO-87 29 Apr 22:48:10 22:49:05 11° 68° (ENE) 22:50:01 145.935 - 145.965
ZACube-1 29 Apr 22:50:21 22:51:34 11° 268° (W) 22:52:46 437.345
AO-73 29 Apr 22:55:19 22:56:20 11° 268° (W) 22:57:19 145.935
